Location: Dillon
(41.1766°N, 107.0923°W)
Time: 16:38:05
(UTC+00:00)

SO-50 - Pass Details

Date: 07 July 2022
Orbit: 585 x 698 km, 64.6° (Epoch: 08 August)

Event Time Altitude Azimuth Distance (km) Brightness Sun altitude
Exits shadow 04:18:42 11° 90° (E) 2,039 ? -14.5°
Drops below altitude 10° 04:19:02 10° 86° (E) 2,080 ? -14.5°
Sets 04:22:55 0° 55° (NE) 3,029 ? -15.0°
